Flag for Israel Weather past 2 weeks in Ashkelon, Israel

81 °F

Passing clouds.

Feels Like: 83 °F
Forecast: 75 / 81 °F
Wind: 9 mph from Northwest

Location: Ben Gurion International Airport

Current Time: Oct 4, 2015 at 8:14:07 PM

Latest Report: Oct 4, 2015 at 7:20 PM

Visibility: N/A

Pressure: 30.01 "Hg

Humidity: 66%

Dew point: 68 °F

Location of AshkelonLocation

Historic Weather in Ashkelon — Graph


Ashkelon temperature yesterday

Maximum temperature yesterday: 86 °F (at 10:50 AM)
Minimum temperature yesterday: 73 °F (at 5:50 AM)
Average temperature yesterday: 80 °F

Past Weeks' High & Low Weather Summary

High99 °F (Sep 20, 1:20 PM)83% (Sep 24, 6:20 AM)30.12 "Hg (Sep 24, 6:20 AM)
Low70 °F (Sep 25, 6:50 AM)18% (Sep 23, 11:50 AM)29.77 "Hg (Sep 20, 2:20 PM)
Average82 °F60%29.93 "Hg
* Reported Sep 19 6:20 PM — Oct 4 6:50 PM, Ashkelon, Weather by CustomWeather, © 2015

Note: Actual official high and low records may vary slightly from our data, if they occured in-between our weather recording intervals... More about our weather records


Ashkelon weather history for previous 24 hours

Time TempWeatherWind HumidityBarometerVisibility
6:50 PM
Sun, Oct 4
81 °FPassing clouds.9 mph66%30.01 "HgN/A
6:20 PM81 °FPassing clouds.12 mph66%30.01 "HgN/A
5:50 PM82 °FPassing clouds.10 mph66%30.01 "HgN/A
5:20 PM82 °FPassing clouds.12 mph66%30.01 "HgN/A
4:50 PM84 °FPassing clouds.12 mph62%30.01 "HgN/A
4:20 PM84 °FPassing clouds.10 mph62%30.01 "HgN/A
3:50 PM86 °FScattered clouds.13 mph59%30.01 "HgN/A
3:20 PM86 °FScattered clouds.12 mph59%30.01 "HgN/A
2:50 PM86 °FPassing clouds.13 mph62%30.04 "HgN/A
2:20 PM86 °FPassing clouds.12 mph62%30.04 "HgN/A
1:50 PM86 °FPassing clouds.12 mph62%30.04 "HgN/A
1:20 PM86 °FScattered clouds.12 mph62%30.04 "HgN/A
12:50 PM86 °FScattered clouds.12 mph62%30.07 "HgN/A
11:50 AM86 °FScattered clouds.9 mph59%30.07 "HgN/A
11:20 AM84 °FScattered clouds.8 mph62%30.07 "HgN/A
10:20 AM84 °FScattered clouds.5 mph58%30.09 "HgN/A
9:50 AM84 °FScattered clouds.5 mph62%30.09 "HgN/A
9:20 AM82 °FPassing clouds.1 mph70%30.09 "HgN/A
8:50 AM82 °FPassing clouds.1 mph66%30.09 "HgN/A
8:20 AM79 °FSunny.1 mph70%30.09 "Hg10 mi
7:50 AM75 °FPassing clouds.1 mph78%30.09 "HgN/A
6:20 AM75 °FClear.3 mph74%30.07 "Hg10 mi
5:50 AM75 °FClear.5 mph78%30.09 "Hg10 mi
5:20 AM75 °FClear.3 mph78%30.07 "Hg10 mi
4:50 AM75 °FPassing clouds.3 mph78%30.07 "HgN/A
4:20 AM73 °FPassing clouds.1 mph83%30.09 "HgN/A
3:50 AM75 °FPassing clouds.3 mph78%30.07 "HgN/A
3:20 AM75 °FPassing clouds.3 mph78%30.07 "HgN/A
2:50 AM75 °FPassing clouds.3 mph83%30.07 "HgN/A
2:20 AM75 °FPassing clouds.2 mph83%30.07 "HgN/A
1:50 AM77 °FPassing clouds.2 mph79%30.09 "HgN/A
1:20 AM77 °FPassing clouds.6 mph79%30.09 "HgN/A
12:20 AM77 °FPassing clouds.1 mph74%30.07 "HgN/A
11:50 PM
Sat, Oct 3
79 °FPassing clouds.5 mph79%30.09 "HgN/A
11:20 PM77 °FClear.5 mph79%30.09 "Hg10 mi
10:50 PM79 °FClear.3 mph74%30.09 "Hg10 mi
10:20 PM79 °FClear.3 mph74%30.09 "Hg10 mi
9:50 PM79 °FPassing clouds.6 mph79%30.09 "HgN/A
9:20 PM79 °FPassing clouds.5 mph79%30.09 "HgN/A
8:50 PM79 °FPassing clouds.5 mph74%30.09 "HgN/A
8:20 PM79 °FPassing clouds.7 mph74%30.09 "HgN/A
Weather by CustomWeather, © 2015

See weather overviewHow to use our weather pages